Theta_e
327 319 314 313 303 299 291 296 301 303 304 309 312 312 311 314 312 304 327 336 340 342 345 345 347 350 350 349 348 349 349 347 346 345 344 343 342 340 339 338 341 338 336 335 335 334 333 334 334
320 316 310 308 301 293 293 296 301 305 308 311 314 313 312 312 322 325 328 338 340 342 344 344 345 349 349 348 348 348 347 347 346 345 343 342 341 338 339 339 339 336 339 337 334 335 334 334 334
312 312 303 304 297 294 293 298 304 308 309 308 306 313 313 316 323 326 332 338 340 341 343 343 345 347 349 348 348 347 347 346 345 345 343 342 341 338 340 340 337 335 334 339 336 334 334 333 333
306 304 302 299 296 298 299 302 306 306 306 308 309 311 317 324 326 329 336 338 337 340 341 341 345 348 348 348 347 346 345 345 344 343 344 342 341 341 340 339 338 336 332 338 335 334 333 332 331
304 298 293 293 296 300 300 306 307 306 306 306 309 308 313 326 330 333 335 336 335 338 339 341 344 345 346 346 346 345 345 344 343 342 343 342 341 340 339 338 339 336 333 332 333 333 332 332 330
299 296 289 288 293 296 303 306 307 306 306 307 312 312 315 327 329 330 334 334 337 336 339 341 338 340 342 344 344 344 345 344 343 341 342 341 339 338 338 337 337 337 336 332 334 334 333 332 330
298 293 289 289 291 294 305 307 305 306 306 306 315 311 313 321 328 329 334 335 336 338 338 338 339 338 335 338 339 340 342 342 342 341 340 339 337 337 337 336 337 335 337 335 332 332 333 332 330
299 295 291 289 289 292 302 307 309 307 306 310 317 310 312 322 329 329 333 334 334 337 337 336 336 337 336 336 333 335 337 338 338 338 335 332 332 332 332 331 332 335 335 336 335 333 334 332 332
301 291 288 290 290 293 302 304 308 310 309 312 315 315 318 327 328 325 327 329 333 335 335 335 334 334 333 334 332 330 331 332 333 332 329 327 327 328 326 326 330 334 333 333 334 334 334 333 331
296 287 289 293 293 295 301 303 305 306 308 312 315 321 325 327 327 323 324 328 330 331 332 334 333 333 332 334 331 331 332 329 328 328 327 327 326 326 326 323 325 330 330 332 334 333 331 328 323
297 291 294 295 301 305 304 304 306 305 304 311 314 318 324 325 325 324 324 328 329 330 332 333 333 333 331 331 328 328 328 327 326 325 327 326 326 323 323 321 321 321 321 322 326 323 325 322 321
293 297 297 299 300 301 300 305 304 304 306 312 320 323 323 323 324 324 323 323 326 327 330 332 334 333 333 333 329 328 327 325 324 325 325 325 323 322 321 321 320 320 320 319 318 318 319 320 321
292 292 296 297 298 299 303 300 302 303 308 312 320 323 322 323 324 325 325 325 325 327 329 331 332 332 333 334 333 331 328 326 325 324 325 325 323 321 321 321 319 319 319 318 317 317 318 318 319
293 296 295 295 296 299 299 298 299 303 306 312 319 320 321 322 323 322 322 324 324 328 329 331 331 332 332 330 330 331 333 331 329 325 324 326 325 322 321 321 320 319 319 318 318 318 317 317 317
295 291 292 292 295 297 297 292 295 301 303 304 313 317 319 320 321 322 325 324 324 326 329 330 330 331 331 330 329 329 330 332 330 329 327 325 325 323 322 321 320 321 320 320 319 318 318 316 316
290 288 283 288 294 297 294 284 292 295 295 299 302 307 312 318 321 324 324 325 323 325 326 330 333 330 330 330 330 329 329 330 331 330 330 329 327 324 322 321 321 321 320 320 318 318 317 315 315
285 278 282 286 292 294 292 286 292 293 292 292 293 299 305 308 312 320 323 325 324 325 326 327 330 330 330 330 330 329 328 328 330 330 330 330 328 325 325 322 321 321 319 318 319 318 317 314 314
281 281 283 283 288 291 291 290 292 294 292 291 292 291 296 300 306 311 318 323 325 325 326 327 330 330 330 330 329 328 326 329 329 329 330 330 329 328 326 326 324 322 320 319 316 317 315 316 316
285 283 282 284 289 289 288 290 293 293 291 290 290 290 292 294 298 299 307 317 322 323 324 326 326 329 330 328 327 328 327 327 327 329 328 328 330 330 328 327 324 322 322 321 319 318 316 315 313
287 283 282 286 290 287 285 286 289 290 290 291 291 290 291 292 295 298 298 306 314 320 322 324 325 326 328 329 329 327 328 327 328 329 327 328 328 329 330 328 327 325 325 324 323 321 320 319 317
287 284 283 284 287 286 286 282 286 290 291 291 293 293 292 292 294 296 296 298 309 313 316 320 321 324 326 328 327 323 323 321 322 324 326 327 327 326 326 327 328 327 327 325 325 323 322 320 320
283 288 288 286 284 278 282 273 281 285 287 288 290 289 292 294 294 296 296 296 298 305 308 310 310 313 321 324 324 324 324 323 325 325 327 326 324 325 325 325 324 324 324 324 323 325 324 322 320
286 289 287 286 282 279 278 276 279 282 283 286 288 289 289 292 294 296 297 297 298 299 300 303 305 307 311 317 322 322 322 322 322 320 322 322 322 324 324 325 323 323 323 323 322 321 323 324 322
292 287 286 283 281 273 278 278 276 282 285 287 288 289 291 290 292 294 297 298 298 298 301 302 303 304 306 309 316 317 318 319 316 316 315 317 319 320 322 323 323 323 323 322 323 323 323 324 323
290 285 271 270 267 271 279 277 280 285 287 287 288 289 291 292 293 294 296 298 299 301 303 305 305 305 306 306 307 313 315 316 315 316 314 313 313 315 320 320 321 321 322 322 322 323 323 323 322
288 286 277 269 271 274 280 276 280 288 291 291 291 291 291 292 293 294 295 298 301 302 303 304 305 304 303 305 306 308 310 308 309 311 311 312 312 314 315 318 320 320 321 323 324 324 324 323 323
287 284 287 280 274 273 277 280 286 289 289 290 290 289 290 291 292 292 294 296 298 299 301 301 300 299 299 300 300 299 300 301 302 302 303 302 301 303 303 304 305 307 310 312 314 318 319 319 320
290 291 281 280 267 266 276 277 279 284 287 289 290 291 291 291 291 292 295 297 297 296 296 297 297 296 297 297 297 297 297 298 298 299 298 299 299 300 300 300 301 303 304 303 303 303 305 305 307
288 286 287 286 279 273 270 275 283 286 287 288 289 291 292 293 293 293 295 295 295 295 294 294 294 294 294 295 294 293 293 294 294 294 294 295 298 298 299 299 299 299 299 299 299 299 299 298 299
291 287 287 280 274 276 278 277 286 287 288 288 289 291 293 292 293 294 295 294 294 293 293 291 291 291 292 291 290 289 290 290 290 290 291 292 292 294 295 295 296 296 297 297 296 295 294 294 293
Wind_Speed
9 7 3 5 5 5 2 3 4 3 2 0 1 7 7 3 3 4 2 10 15 13 11 10 13 15 15 16 16 15 14 16 17 16 16 15 15 14 14 14 13 13 15 13 12 11 12 10 9
7 4 4 3 4 2 5 3 6 5 6 7 8 4 5 2 2 6 7 12 16 13 11 10 12 14 15 16 15 14 14 15 16 15 15 14 14 13 12 13 13 9 12 15 13 11 10 9 8
7 2 4 5 3 4 5 3 6 5 5 4 4 5 5 4 2 9 8 15 14 13 11 10 12 14 14 14 14 13 13 14 15 14 15 14 14 13 10 13 11 9 5 15 14 10 9 7 7
5 6 5 4 3 6 7 7 5 6 2 3 4 6 2 4 10 7 15 14 14 12 11 12 13 14 14 14 13 13 13 13 14 14 14 14 13 12 10 10 15 12 4 11 14 9 7 6 5
5 4 4 1 4 4 1 9 8 8 5 3 4 4 2 4 3 16 14 11 13 10 9 11 12 13 13 12 14 13 12 11 12 13 13 14 11 11 9 7 12 12 11 7 10 9 7 6 4
5 3 4 3 3 6 3 4 8 8 4 6 6 6 4 3 11 11 12 10 11 9 9 9 10 10 10 11 11 10 10 10 10 10 11 11 11 9 7 8 7 12 11 10 9 12 9 6 4
5 4 3 3 3 3 6 4 6 7 9 6 11 6 1 2 7 8 11 10 10 10 8 6 7 8 9 9 9 9 9 11 10 10 10 10 11 9 10 7 6 8 9 10 10 3 8 5 3
5 4 2 3 2 3 4 4 5 7 7 5 8 7 6 8 8 9 9 9 9 8 9 9 7 7 7 7 10 9 10 10 10 10 9 9 9 9 9 8 6 5 5 6 12 10 9 8 6
4 4 4 4 4 5 4 4 3 1 5 3 2 7 6 17 10 9 7 5 7 7 9 8 8 6 6 6 7 9 9 10 9 8 9 7 5 6 7 7 10 10 8 8 8 9 9 8 7
5 5 9 5 5 3 4 2 2 0 4 3 3 4 13 17 14 13 12 12 12 11 9 9 9 8 7 6 6 5 5 4 5 5 6 4 5 5 6 6 9 9 9 9 8 8 9 7 3
5 7 5 3 3 4 3 6 6 3 4 6 10 10 16 12 13 13 12 14 15 12 8 9 9 8 8 6 4 2 3 3 3 6 5 5 4 3 3 2 3 3 6 3 5 4 3 5 4
5 7 3 3 3 2 2 5 7 0 5 6 12 20 15 14 15 15 14 12 11 10 12 10 11 10 9 6 6 6 5 4 3 4 6 4 3 4 4 3 4 4 3 5 4 3 4 5 5
6 3 4 2 2 2 3 5 4 8 8 6 9 12 18 16 14 11 11 10 11 13 12 13 11 9 8 9 7 6 5 5 6 5 6 5 4 5 4 4 4 5 4 4 4 4 4 5 5
6 3 2 2 3 2 3 2 1 6 1 3 14 13 10 14 16 8 8 13 13 13 14 12 11 10 8 6 6 6 6 6 6 5 6 8 6 5 5 5 5 5 5 4 4 5 5 5 4
3 2 4 3 3 4 3 6 9 13 2 3 7 10 10 10 8 14 15 13 12 10 12 13 11 9 9 9 6 5 5 5 5 6 7 8 8 7 6 6 5 6 5 6 4 4 3 4 4
4 5 1 4 7 5 8 9 7 7 3 9 9 7 7 10 15 14 11 11 9 9 12 13 11 11 11 9 7 4 5 5 6 6 7 6 7 8 7 6 6 5 4 5 4 5 5 4 4
3 4 6 6 10 4 6 7 6 2 3 5 5 8 8 8 8 11 13 14 12 14 13 12 12 12 12 10 8 6 6 4 5 4 7 8 7 6 7 6 5 5 4 5 5 5 4 4 5
8 5 4 5 3 5 5 12 7 6 1 7 8 6 9 9 12 9 11 14 14 15 15 15 12 13 12 8 6 4 4 6 5 7 7 9 6 7 6 6 7 6 5 5 3 6 4 5 6
5 4 5 3 4 6 8 10 11 9 7 9 10 10 8 9 10 8 9 9 11 11 13 15 14 14 10 7 6 6 9 8 6 9 10 10 10 10 9 8 6 5 7 7 7 5 7 5 3
2 2 3 5 2 4 3 11 10 7 8 10 10 10 11 7 7 10 8 9 10 14 14 14 14 14 12 9 8 5 7 6 9 7 8 11 10 10 9 9 7 8 7 8 8 8 5 4 6
6 5 3 3 4 4 4 9 9 7 8 9 13 13 9 12 13 11 9 8 9 12 12 12 13 14 13 13 6 2 2 1 3 4 6 10 10 7 8 9 8 7 7 7 8 8 10 8 5
7 8 7 5 3 5 1 8 7 5 7 6 11 11 16 16 12 12 9 8 9 10 7 8 8 9 10 12 9 11 10 9 6 5 7 6 6 8 9 9 7 7 6 7 6 5 8 8 9
5 6 7 4 3 1 3 3 8 3 5 10 9 11 12 14 14 15 14 10 9 7 8 7 6 7 7 9 10 9 10 6 3 3 5 5 5 9 9 9 8 9 6 8 7 6 5 7 8
4 4 6 5 3 5 8 8 6 6 9 8 7 6 9 10 9 9 9 6 6 4 5 6 7 6 5 6 7 7 8 8 5 5 4 4 4 4 7 8 8 8 8 8 9 10 11 8 7
6 10 2 4 3 8 2 5 10 5 8 6 9 9 10 8 8 9 8 7 6 7 6 4 6 4 3 3 3 5 7 7 7 6 4 4 3 3 6 7 8 7 8 9 8 9 8 8 7
15 10 7 9 6 4 4 9 8 11 10 7 10 9 9 8 4 3 6 5 4 6 6 5 4 5 7 7 7 6 6 0 1 2 3 3 2 2 2 5 5 6 5 7 8 6 6 6 7
7 13 5 3 1 3 6 7 10 6 4 3 4 3 7 5 1 3 5 6 6 3 4 6 7 7 8 7 6 6 6 7 5 6 6 4 5 4 5 5 5 5 3 3 3 2 4 4 5
8 10 5 1 2 4 4 4 5 4 6 7 7 7 8 7 5 1 4 6 7 7 6 9 8 8 7 7 7 7 7 8 7 7 7 6 5 6 6 5 5 4 3 4 4 3 3 4 3
4 6 4 3 6 5 1 6 8 7 7 8 10 11 8 8 6 5 6 6 8 7 8 8 8 8 8 8 8 9 8 9 8 8 8 7 7 7 6 5 5 5 5 5 5 5 5 5 5
17 7 9 6 4 3 2 7 5 10 9 7 8 11 13 8 4 4 6 7 8 8 8 8 7 8 7 7 9 10 10 10 11 10 9 9 8 7 7 7 6 6 6 6 5 5 5 5 5
Wind_Direction
317 307 135 53 64 69 220 248 160 132 59 182 79 121 132 76 141 203 206 158 133 145 152 155 151 148 143 142 142 139 139 137 134 133 131 128 123 119 119 123 113 115 116 102 98 95 90 85 79
311 321 46 86 96 85 262 230 157 175 170 118 88 90 57 100 113 123 107 158 145 147 152 151 152 151 148 146 147 143 143 143 142 139 135 133 132 129 134 127 97 95 112 114 106 98 92 84 75
314 153 88 104 120 182 204 208 161 150 157 119 90 60 122 164 107 159 141 151 142 148 152 154 154 154 153 151 150 149 148 143 141 146 144 140 140 137 136 112 118 101 110 126 110 106 100 86 63
357 7 31 97 238 255 187 172 166 123 62 91 110 76 25 243 154 155 144 145 145 152 155 159 157 157 154 156 153 153 155 153 148 148 151 150 150 149 140 139 135 129 94 108 112 110 111 98 73
31 52 41 18 275 303 264 168 166 147 161 128 131 172 61 349 145 136 148 147 147 150 153 161 159 159 156 156 158 155 156 156 156 150 157 152 150 133 147 150 143 135 138 130 124 130 129 129 119
27 88 49 258 270 318 332 225 152 146 159 144 80 114 178 139 141 147 142 142 140 143 152 161 157 154 155 156 155 158 160 159 161 157 152 156 139 142 156 167 135 156 160 156 143 149 152 154 151
104 80 210 254 235 286 200 171 169 178 158 193 147 120 266 191 170 131 136 130 140 144 143 150 154 159 157 155 160 166 179 165 163 162 159 153 153 160 173 176 165 161 158 163 167 157 155 166 177
106 93 234 241 195 274 295 160 169 168 202 90 140 169 183 208 176 118 126 128 140 153 158 160 159 163 163 163 167 166 166 168 170 174 173 168 167 171 166 176 186 176 182 174 178 180 178 188 197
95 72 236 237 179 264 342 21 331 161 126 81 136 152 195 155 148 116 122 125 149 165 169 168 165 167 167 166 175 173 172 176 180 177 179 174 172 183 188 184 193 196 202 204 194 191 192 195 211
113 145 222 213 159 243 299 24 314 37 142 40 55 28 133 150 161 155 162 167 172 178 186 180 175 178 173 177 171 177 179 178 175 178 184 181 186 190 189 202 206 205 204 217 216 220 213 205 220
177 196 198 222 152 166 291 329 314 153 276 213 174 152 150 158 172 171 168 176 180 184 186 187 180 184 181 182 167 175 177 176 186 192 184 188 187 205 211 216 228 223 221 223 228 237 229 220 222
153 249 206 249 164 160 195 307 324 250 252 224 184 163 158 167 180 180 178 174 178 183 190 186 184 183 188 187 178 182 179 182 192 199 193 181 192 200 210 208 216 211 206 215 226 232 239 243 240
179 230 190 182 288 239 199 227 245 281 274 311 153 166 171 176 187 193 185 175 174 190 197 193 183 182 183 182 177 177 190 187 193 194 196 186 197 200 194 205 193 204 195 205 221 229 237 244 243
186 170 306 246 254 232 242 254 95 267 333 86 161 185 181 185 190 183 187 192 187 189 197 192 192 189 182 187 178 183 183 183 188 196 203 198 199 200 195 196 205 211 204 206 209 212 222 238 239
131 180 334 247 227 222 138 288 213 238 8 294 222 192 183 196 179 200 206 199 191 195 187 193 196 190 187 194 193 189 185 186 202 202 189 201 202 205 198 203 207 213 205 208 210 228 225 237 241
127 54 89 268 175 235 123 262 249 264 233 241 250 228 219 204 201 206 202 206 198 190 186 192 193 191 195 194 195 201 199 190 214 213 222 211 205 200 205 208 216 210 205 202 197 212 232 235 231
351 184 204 299 201 143 161 251 259 107 143 278 248 252 237 237 236 220 209 204 196 197 195 189 189 191 195 198 199 203 208 202 211 209 220 223 215 203 212 216 218 206 207 208 212 222 209 220 241
193 195 214 204 203 183 199 251 262 261 324 280 288 263 247 243 235 225 219 208 203 198 194 191 189 193 192 191 191 203 204 218 213 215 217 211 210 202 209 227 214 200 207 220 199 218 210 223 231
144 174 183 223 242 168 218 242 248 261 302 286 267 256 254 242 260 247 228 226 214 203 194 192 188 193 179 176 184 206 217 219 222 221 219 211 218 217 217 228 219 200 216 223 204 209 224 241 194
223 223 261 288 300 178 256 261 257 231 238 238 249 259 246 249 263 262 241 222 211 205 199 197 196 189 188 186 196 187 190 213 217 213 213 213 213 208 215 217 219 210 222 227 221 218 227 237 175
237 206 205 233 9 330 334 284 253 242 236 243 251 245 251 227 240 247 252 238 220 208 202 201 201 192 191 192 184 109 111 57 169 209 218 223 217 200 203 207 213 213 217 229 223 211 218 243 209
230 190 196 208 123 234 110 280 275 247 242 219 246 237 238 238 235 236 238 229 217 219 206 206 192 193 199 186 191 199 208 217 216 199 218 223 202 213 218 224 215 216 212 228 231 212 216 221 243
220 175 177 166 176 216 224 298 270 273 266 264 256 237 242 239 226 224 225 216 221 227 218 218 212 207 196 184 195 198 214 222 203 201 212 207 206 216 221 223 219 221 213 226 229 239 216 218 230
188 99 47 53 99 276 201 182 248 212 214 239 262 268 256 240 216 231 235 232 214 212 205 197 201 217 194 186 202 198 201 205 195 211 209 218 215 215 222 220 218 220 219 219 230 231 238 228 232
175 131 24 5 357 231 199 205 256 272 269 234 251 269 279 261 203 209 208 201 188 190 182 138 142 142 127 173 204 215 215 214 216 226 213 205 224 227 229 211 215 214 215 222 225 236 235 227 231
195 172 159 188 203 240 157 235 256 243 280 270 250 237 274 260 279 150 181 165 140 145 141 132 113 82 58 62 60 50 40 77 232 245 232 245 246 239 286 226 214 217 221 231 237 240 235 229 231
180 209 156 113 47 70 218 287 301 255 271 284 339 324 292 292 155 149 144 167 170 117 78 100 91 76 59 56 66 56 49 47 43 40 43 44 27 30 36 33 43 30 28 22 352 289 282 273 256
194 145 177 98 164 265 276 267 240 350 297 39 2 318 310 315 296 116 100 89 76 81 72 69 69 75 67 59 52 51 42 43 42 45 37 36 26 20 27 27 26 31 29 27 28 10 349 335 324
161 173 217 167 168 186 223 256 225 240 70 24 10 351 319 277 278 45 78 81 91 75 63 62 58 60 54 54 52 53 44 42 44 43 31 24 25 19 22 15 18 23 23 17 21 15 21 5 347
219 189 185 194 240 232 149 265 350 99 77 75 26 360 353 335 291 159 121 82 73 77 73 68 60 62 59 63 60 52 46 40 39 30 22 19 17 12 13 14 17 15 16 17 30 21 13 9 356